Date String (YYYY-MM-DD hh:mm:ss) UTC,Instrument flags,absolute air pressure of the measurement (hPa),sample flow rate (lpm),inlet stack bypass flow (lpm),air temperature of the measurement (°C),ambient temperature measured by the external sensor (°C),aerosol sample conditioner tube jacket temperature (°C),OPC LED temperature (°C),internal box temperature (°C),relative humidity of the measurement (%),span deviation,mass concentration of particles derived from Lorenz-Mie calculation of OPC scattering (μg/m³),mass concentration of particles derived from Lorenz-Mie calculation of OPC scattering (μg/m³),mass concentration of particles derived from Lorenz-Mie calculation of OPC scattering (μg/m³)
DateTimeUTC,F1_M11,P_M11,Q1_M11,Q2_M11,T1_M11,T2_M11,T3_M11,T4_M11,T5_M11,U1_M11,ZSPAN_M11,X0_M11,X2_M11,X1_M11
2023-07-21 17:00:00,SystemResetWarning,0838.2,5.01,000.00,031.4,026.8,000.0,039.0,031.2,34.0,0000.1,0009.79,0006.58,0006.23
2023-07-21 17:01:00,SystemResetWarning,0838.2,4.98,000.00,031.4,027.1,000.0,039.0,031.3,33.7,0000.2,0009.79,0006.58,0006.22
2023-07-21 17:02:00,SystemResetWarning,0838.2,5.01,000.00,031.4,027.4,000.0,039.1,031.3,33.7,-000.1,0009.81,0006.59,0006.22
2023-07-21 17:03:00,SystemResetWarning,0838.3,5.01,000.00,031.4,027.6,000.0,039.1,031.4,32.3,-000.7,0009.80,0006.57,0006.19
2023-07-21 17:04:00,SystemResetWarning,0838.2,5.01,000.00,031.4,027.8,000.0,039.2,031.4,31.3,-001.2,0009.79,0006.56,0006.18
2023-07-21 17:05:00,SystemResetWarning,0838.2,5.00,000.00,031.4,028.0,000.0,039.2,031.5,31.2,-000.5,0009.73,0006.55,0006.20
2023-07-21 17:06:00,SystemResetWarning,0838.3,5.00,000.00,031.4,028.1,000.0,039.3,031.5,32.0,-000.1,0009.73,0006.53,0006.18
2023-07-21 17:07:00,SystemResetWarning,0838.3,4.99,000.00,031.5,027.3,000.0,039.2,031.5,31.0,-000.6,0009.70,0006.49,0006.15
2023-07-21 17:08:00,SystemResetWarning,0838.2,5.01,000.00,031.4,025.8,000.0,039.1,031.3,32.0,-000.8,0009.64,0006.47,0006.15
2023-07-21 17:09:00,SystemResetWarning,0838.2,5.00,000.00,031.3,025.3,000.0,039.0,031.1,32.5,-000.7,0009.84,0006.48,0006.15
2023-07-21 17:10:00,SystemResetWarning,0838.2,5.01,000.00,031.1,025.4,000.0,039.0,031.0,32.6,-000.5,0009.81,0006.47,0006.15
2023-07-21 17:11:00,SystemResetWarning,0838.2,5.00,000.00,031.0,025.8,000.0,039.0,030.9,33.6,-000.1,0009.31,0006.44,0006.14
2023-07-21 17:12:00,SystemResetWarning,0838.2,4.99,000.00,030.9,026.2,000.0,039.0,031.0,34.1,0000.0,0009.72,0006.43,0006.14
2023-07-21 17:13:00,SystemResetWarning,0838.2,4.99,000.00,030.9,026.6,000.0,039.1,031.1,35.6,0000.2,0009.65,0006.40,0006.12
2023-07-21 17:14:00,SystemResetWarning,0838.2,5.02,000.00,031.0,027.0,000.0,039.1,031.2,35.6,0000.4,0009.64,0006.39,0006.12
2023-07-21 17:15:00,SystemResetWarning,0838.2,5.00,000.00,031.3,027.2,000.0,039.1,031.4,35.3,0000.7,0009.62,0006.35,0006.09
2023-07-21 17:16:00,SystemResetWarning,0838.2,4.98,000.00,031.6,027.5,000.0,039.1,031.6,35.5,0000.8,0009.53,0006.31,0006.04
2023-07-21 17:17:00,SystemResetWarning,0838.2,5.02,000.00,031.9,027.7,000.0,039.1,031.8,35.3,-000.1,0009.47,0006.29,0006.03
2023-07-21 17:18:00,SystemResetWarning,0838.2,4.99,000.00,032.3,027.9,000.0,039.2,031.9,34.9,-000.2,0009.41,0006.29,0006.02
2023-07-21 17:19:00,SystemResetWarning,0838.2,5.00,000.00,032.6,028.0,000.0,039.3,032.0,34.1,-000.2,0009.41,0006.27,0005.99
2023-07-21 17:20:00,SystemResetWarning,0838.2,5.00,000.00,032.9,026.9,000.0,039.3,031.9,32.6,-000.4,0009.32,0006.26,0005.99
2023-07-21 17:21:00,SystemResetWarning,0838.2,5.00,000.00,032.9,025.6,000.0,039.3,031.6,33.1,-000.4,0009.32,0006.28,0005.96
2023-07-21 17:22:00,SystemResetWarning,0838.2,5.01,000.00,032.9,025.3,000.0,039.3,031.4,32.7,-000.2,0009.38,0006.29,0005.96
2023-07-21 17:23:00,SystemResetWarning,0838.2,5.01,000.00,032.8,025.5,000.0,039.5,031.3,34.1,-000.5,0009.20,0006.25,0005.92
2023-07-21 17:24:00,SystemResetWarning,0838.2,5.00,000.00,032.6,025.9,000.0,039.6,031.3,33.9,-001.3,0008.95,0006.24,0005.90
2023-07-21 17:25:00,SystemResetWarning,0838.2,5.00,000.00,032.5,026.3,000.0,039.8,031.4,34.1,-001.0,0008.97,0006.24,0005.89
2023-07-21 17:26:00,SystemResetWarning,0838.1,5.00,000.00,032.5,026.7,000.0,039.8,031.4,33.8,-000.5,0009.07,0006.25,0005.88
2023-07-21 17:27:00,SystemResetWarning,0838.1,5.00,000.00,032.4,027.1,000.0,039.9,031.5,34.0,-001.2,0009.22,0006.33,0005.95
2023-07-21 17:28:00,SystemResetWarning,0838.1,5.00,000.00,032.4,027.3,000.0,039.9,031.6,33.7,-001.2,0009.45,0006.41,0005.99
2023-07-21 17:29:00,SystemResetWarning,0838.1,5.00,000.00,032.3,027.6,000.0,040.0,031.6,33.7,-001.0,0009.96,0006.48,0006.02
2023-07-21 17:30:00,SystemResetWarning,0838.1,4.99,000.00,032.3,027.8,000.0,040.0,031.7,33.9,-000.9,0010.19,0006.56,0006.07
2023-07-21 17:31:00,SystemResetWarning,0838.1,4.97,000.00,032.3,028.0,000.0,040.0,031.7,34.9,-001.0,0010.52,0006.59,0006.08
2023-07-21 17:32:00,SystemResetWarning,0838.0,5.03,000.00,032.3,027.9,000.0,040.0,031.9,35.5,-001.1,0010.61,0006.61,0006.11
2023-07-21 17:33:00,SystemResetWarning,0838.1,4.98,000.00,032.6,026.6,000.0,039.9,031.8,33.8,-001.3,0010.69,0006.65,0006.15
2023-07-21 17:34:00,SystemResetWarning,0838.0,5.00,000.00,032.6,025.4,000.0,039.8,031.6,33.5,-001.0,0010.70,0006.69,0006.20
2023-07-21 17:35:00,SystemResetWarning,0838.0,5.01,000.00,032.6,025.3,000.0,039.7,031.4,33.4,-000.6,0010.90,0006.75,0006.26
2023-07-21 17:36:00,SystemResetWarning,0838.0,5.00,000.00,032.4,025.6,000.0,039.8,031.3,33.7,-000.7,0011.07,0006.82,0006.32
2023-07-21 17:37:00,SystemResetWarning,0838.0,5.00,000.00,032.3,026.0,000.0,039.9,031.3,34.2,-000.6,0011.23,0006.93,0006.43
2023-07-21 17:38:00,SystemResetWarning,0838.0,5.01,000.00,032.2,026.4,000.0,039.9,031.4,33.7,-000.6,0011.37,0006.99,0006.49
2023-07-21 17:39:00,SystemResetWarning,0838.0,5.00,000.00,032.2,026.8,000.0,039.9,031.5,34.1,-000.5,0011.41,0007.04,0006.57
2023-07-21 17:40:00,SystemResetWarning,0838.0,5.00,000.00,032.1,027.1,000.0,040.0,031.5,34.4,-000.2,0011.08,0007.11,0006.66
2023-07-21 17:41:00,SystemResetWarning,0838.0,4.99,000.00,032.1,027.4,000.0,040.0,031.6,34.5,-000.2,0010.98,0007.14,0006.72
2023-07-21 17:42:00,SystemResetWarning,0838.0,5.00,000.00,032.1,027.6,000.0,040.0,031.7,34.2,0000.0,0010.72,0007.20,0006.81
2023-07-21 17:43:00,SystemResetWarning,0837.9,5.00,000.00,032.1,027.8,000.0,040.0,031.7,34.3,-000.1,0010.62,0007.25,0006.89
2023-07-21 17:44:00,SystemResetWarning,0837.9,4.99,000.00,032.1,028.0,000.0,040.0,031.8,34.7,-000.3,0010.61,0007.30,0006.94
2023-07-21 17:45:00,SystemResetWarning,0837.9,4.99,000.00,032.1,027.7,000.0,039.9,031.8,34.2,-000.9,0010.88,0007.36,0006.98
2023-07-21 17:46:00,SystemResetWarning,0837.9,5.01,000.00,032.1,026.3,000.0,039.8,031.7,35.0,-000.8,0011.42,0007.41,0007.00
2023-07-21 17:47:00,SystemResetWarning,0837.9,5.01,000.00,032.1,025.4,000.0,039.6,031.5,35.0,-000.9,0011.38,0007.42,0007.01
2023-07-21 17:48:00,SystemResetWarning,0838.0,4.98,000.00,032.1,025.3,000.0,039.6,031.4,34.2,-001.4,0011.29,0007.41,0007.00
2023-07-21 17:49:00,SystemResetWarning,0837.8,4.99,000.00,032.0,025.7,000.0,039.6,031.3,35.2,-001.3,0011.16,0007.37,0006.95
2023-07-21 17:50:00,SystemResetWarning,0837.9,5.03,000.00,032.1,026.1,000.0,039.7,031.4,34.6,-001.5,0011.19,0007.35,0006.91
2023-07-21 17:51:00,SystemResetWarning,0838.0,4.97,000.00,032.1,026.5,000.0,039.7,031.4,34.5,-001.7,0011.28,0007.29,0006.88
2023-07-21 17:52:00,SystemResetWarning,0838.0,5.02,000.00,032.1,026.9,000.0,039.7,031.5,34.2,-001.4,0011.16,0007.25,0006.85
2023-07-21 17:53:00,SystemResetWarning,0838.0,4.99,000.00,032.1,027.2,000.0,039.8,031.6,34.1,-001.2,0011.30,0007.27,0006.86
2023-07-21 17:54:00,SystemResetWarning,0837.9,4.99,000.00,032.1,027.4,000.0,039.8,031.6,34.2,-000.6,0011.67,0007.34,0006.91
2023-07-21 17:55:00,SystemResetWarning,0837.9,5.01,000.00,032.1,027.7,000.0,039.9,031.7,34.1,-000.5,0011.70,0007.39,0006.97
2023-07-21 17:56:00,SystemResetWarning,0837.9,5.01,000.00,032.1,027.9,000.0,039.9,031.7,34.0,-000.1,0011.73,0007.49,0007.07
2023-07-21 17:57:00,SystemResetWarning,0837.9,4.99,000.00,032.0,027.9,000.0,039.9,031.8,34.4,-000.3,0011.24,0007.62,0007.21
2023-07-21 17:58:00,SystemResetWarning,0837.8,4.98,000.00,032.1,026.7,000.0,039.8,031.6,35.5,0000.1,0011.31,0007.75,0007.34
2023-07-21 17:59:00,SystemResetWarning,0837.8,5.00,000.00,032.2,025.5,000.0,039.6,031.5,35.1,0000.6,0011.44,0007.82,0007.42
